THOR ABLESTAR DEB, 2620

Orbit data source: Space-Track

THOR ABLESTAR DEB, 2620 is space debris in LEO originally from a launch on Thu, 05 Dec 1963 UTC launched from the Air Force Western Test Range (AFWTR). Debris objects in space refer to the collection of defunct objects orbiting the Earth. Examples of debris include non-operational satellites, rocket bodies, and fragments generated from explosions, collisions, or faulty payload assembly.

Loading next visibility...
Identifier
2620, 1963-049H
Orbit
LEO
Country
Flag of USUS
Related business
Manufacturer
Unknown
Mission
Spacecraft
Bus & Motor
Unknown
Mass
Unknown
Launch date (UTC)
1963-12-05 (62 years ago)
Launch vehicle
Unknown
Launch site
Air Force Western Test Range (AFWTR)
Object type
Payload
Rocket body
Debris
Shape & HBR
Unknown shape, 0.1 m
Radar Cross Section
Small (<0.1 m²)

Expand to show TLE details & history
Last TLE update: 22 hours ago

TLE from 22 hours ago
0 THOR ABLESTAR DEB
1  2620U 63049H   26125.82521796  .00000271  00000-0  35142-3 0  9996
2  2620  89.9179  72.8386 0013107 214.7945 215.6869 13.59737831 84638
Epoch: 2026-05-05T19:48Z
TLE epoch observation values (Epoch: 2026-05-05T19:48:18.831Z)
Latitude
70.46278°
Longitude
-87.70419°
Altitude
1,056.813 km
Speed
7.326 km/s
True Right ascension
04h 52m 16s
True Declination
70° 21' 31"
Sunlit
Object was in daylight at epoch
Visualization orbit readout
Latitude
Unknown
Longitude
Unknown
Altitude
Unknown
Speed
Unknown
Apparent Right ascension
Unknown
Apparent Declination
Unknown
Sunlit
N/A
Visualization observer readout
Local Sidereal Time
02:00:42
Azimuth
Unknown
Elevation
Unknown
Doppler factor
Unknown
Orbital elements
Apogee altitude
1,043.395 km
Perigee altitude
1,023.966 km
Semi-major axis
7,411.818 km
Eccentricity
0.00131
Inclination
89.9179°
RAAN
72.8386°
Arg. of periapsis
214.7945°
True anomaly
215.5994°
Mean anomaly
215.6869°
Eccentric anomaly
215.64314°
Mean motion
3.40139 °/min
Orbital period
105.84 mins
BSTAR
0.00035142
Loading maneuver chart data...
Computing Atmospheric mass density...
Loading historical data...
Loading historical data...
Loading historical data...
Loading historical data...
Loading historical data...
Loading historical data...
Loading historical data...

Documentation

Showing up to 5 results
|